User: anonymous   Login
Location: Buena Vista
(37.7110°N, 119.7938°W)
Time: 14:24:42
(UTC+00:00)
Language:

NOAA 19 - Orbit

View from above orbital plane
View from above orbital plane
View from above satellite
View from above satellite

Ground track
Ground track

The orbit data is extracted from the following two-line orbital elements,

1 33591U 09005A   24277.13988011  .00000919  00000-0  51549-3 0  9994
2 33591  99.0354 334.0264 0013478 352.1396   7.9562 14.13138978806870
Epoch (UTC): 03 October 2024 03:21:25
Eccentricity: 0.0013478
inclination: 99.0354°
perigee height: 839 km
apogee height: 858 km
right ascension of ascending node: 334.0264°
argument of perigee: 352.1396°
revolutions per day: 14.13138978
mean anomaly at epoch: 7.9562°
orbit number at epoch: 80687

The dashed part of the orbit path shows where the satellite is in the earth's shadow,  

DLR